GFSMW_prec_precacc_051.txt.gz
Total_Precipitation_Accumulation
0.00 0.00 0.00 0.00 0.00 0.00 0.00 0.00 0.00 0.01 0.08 0.11 0.09 0.14 0.10 0.13 0.17 0.17 0.25 0.28 0.20 0.19 0.22 0.17 0.10 0.02 0.00 0.01 0.03 0.06 0.12 0.14 0.18 0.15 0.01 0.01 0.00 0.00 0.00 0.00 0.00 0.00 0.00
0.00 0.00 0.00 0.00 0.00 0.00 0.00 0.00 0.00 0.00 0.03 0.09 0.13 0.18 0.19 0.12 0.09 0.15 0.11 0.15 0.13 0.14 0.17 0.19 0.20 0.16 0.07 0.06 0.13 0.15 0.15 0.10 0.17 0.17 0.05 0.00 0.00 0.00 0.00 0.00 0.00 0.00 0.00
0.00 0.00 0.00 0.00 0.00 0.00 0.00 0.00 0.00 0.01 0.04 0.10 0.15 0.20 0.24 0.16 0.09 0.05 0.02 0.05 0.12 0.14 0.20 0.33 0.25 0.14 0.14 0.12 0.18 0.19 0.20 0.16 0.13 0.11 0.10 0.02 0.00 0.00 0.00 0.00 0.00 0.00 0.00
0.00 0.00 0.00 0.00 0.00 0.00 0.00 0.00 0.00 0.01 0.04 0.09 0.08 0.08 0.05 0.06 0.06 0.07 0.16 0.20 0.18 0.21 0.21 0.31 0.35 0.27 0.15 0.14 0.15 0.20 0.19 0.16 0.12 0.12 0.08 0.08 0.03 0.03 0.01 0.01 0.01 0.01 0.00
0.00 0.00 0.00 0.00 0.00 0.00 0.00 0.00 0.00 0.00 0.01 0.09 0.09 0.10 0.06 0.06 0.07 0.13 0.19 0.18 0.18 0.21 0.22 0.23 0.23 0.26 0.21 0.25 0.25 0.20 0.17 0.18 0.18 0.15 0.15 0.13 0.11 0.06 0.05 0.06 0.05 0.04 0.03
0.00 0.00 0.00 0.00 0.00 0.00 0.00 0.00 0.00 0.00 0.01 0.02 0.06 0.07 0.06 0.04 0.09 0.09 0.11 0.13 0.14 0.15 0.16 0.18 0.19 0.26 0.31 0.31 0.31 0.34 0.30 0.27 0.22 0.17 0.17 0.18 0.18 0.15 0.12 0.14 0.11 0.11 0.10
0.00 0.00 0.00 0.00 0.00 0.00 0.00 0.00 0.00 0.00 0.00 0.00 0.02 0.03 0.04 0.06 0.08 0.12 0.14 0.11 0.10 0.08 0.09 0.16 0.18 0.19 0.24 0.27 0.32 0.31 0.30 0.31 0.27 0.22 0.19 0.21 0.23 0.24 0.25 0.22 0.18 0.14 0.10
0.00 0.00 0.00 0.00 0.00 0.00 0.00 0.00 0.00 0.00 0.00 0.01 0.02 0.04 0.05 0.08 0.11 0.14 0.11 0.10 0.10 0.11 0.15 0.15 0.17 0.19 0.21 0.21 0.23 0.24 0.24 0.24 0.24 0.26 0.23 0.21 0.21 0.25 0.28 0.29 0.27 0.22 0.14
0.00 0.00 0.00 0.00 0.00 0.00 0.00 0.00 0.00 0.00 0.01 0.03 0.07 0.06 0.05 0.08 0.08 0.10 0.10 0.11 0.10 0.12 0.15 0.15 0.15 0.18 0.20 0.22 0.24 0.24 0.22 0.22 0.23 0.22 0.20 0.15 0.13 0.16 0.16 0.18 0.22 0.36 0.42
0.00 0.00 0.00 0.00 0.00 0.00 0.00 0.00 0.00 0.02 0.03 0.06 0.10 0.03 0.05 0.07 0.07 0.07 0.05 0.06 0.09 0.10 0.10 0.10 0.12 0.15 0.18 0.19 0.20 0.22 0.19 0.22 0.22 0.23 0.27 0.28 0.26 0.22 0.22 0.23 0.28 0.36 0.56
0.00 0.00 0.00 0.00 0.00 0.00 0.00 0.00 0.01 0.04 0.06 0.05 0.03 0.02 0.04 0.06 0.07 0.07 0.05 0.05 0.07 0.07 0.07 0.08 0.09 0.09 0.09 0.10 0.13 0.17 0.27 0.36 0.42 0.46 0.47 0.48 0.45 0.48 0.54 0.63 0.75 0.88 0.99
0.00 0.00 0.00 0.00 0.00 0.00 0.00 0.00 0.05 0.07 0.03 0.02 0.02 0.02 0.03 0.04 0.05 0.05 0.07 0.07 0.07 0.05 0.05 0.05 0.04 0.04 0.06 0.09 0.10 0.11 0.13 0.17 0.23 0.29 0.35 0.40 0.41 0.42 0.42 0.47 0.56 0.72 0.90
0.00 0.02 0.00 0.00 0.01 0.02 0.07 0.12 0.10 0.03 0.04 0.04 0.03 0.03 0.04 0.05 0.06 0.06 0.06 0.06 0.06 0.06 0.05 0.04 0.03 0.02 0.02 0.03 0.05 0.08 0.12 0.17 0.25 0.29 0.31 0.34 0.36 0.39 0.39 0.43 0.49 0.58 0.65
0.00 0.00 0.01 0.00 0.06 0.15 0.25 0.15 0.12 0.10 0.10 0.09 0.07 0.08 0.07 0.08 0.07 0.07 0.06 0.05 0.05 0.05 0.04 0.05 0.05 0.06 0.06 0.07 0.09 0.08 0.08 0.07 0.07 0.08 0.11 0.17 0.26 0.37 0.51 0.69 0.77 0.68 0.52
0.00 0.00 0.01 0.01 0.05 0.19 0.18 0.17 0.20 0.19 0.16 0.15 0.12 0.07 0.06 0.08 0.07 0.06 0.07 0.05 0.05 0.04 0.04 0.08 0.14 0.16 0.16 0.19 0.18 0.17 0.17 0.18 0.21 0.23 0.27 0.32 0.40 0.44 0.41 0.34 0.28 0.24 0.21
0.00 0.00 0.00 0.00 0.02 0.08 0.15 0.15 0.19 0.17 0.10 0.10 0.09 0.07 0.05 0.06 0.08 0.09 0.09 0.09 0.09 0.10 0.10 0.13 0.14 0.17 0.21 0.35 0.30 0.25 0.26 0.28 0.29 0.31 0.33 0.36 0.40 0.33 0.30 0.22 0.14 0.11 0.17
0.00 0.00 0.00 0.00 0.02 0.11 0.19 0.61 0.74 0.37 0.09 0.21 0.16 0.12 0.08 0.09 0.12 0.14 0.16 0.14 0.12 0.15 0.24 0.25 0.20 0.16 0.15 0.27 0.22 0.21 0.20 0.23 0.25 0.25 0.22 0.19 0.17 0.13 0.10 0.09 0.07 0.12 0.09
0.00 0.00 0.00 0.00 0.02 0.13 0.53 0.65 0.86 0.35 0.16 0.29 0.47 0.52 0.47 0.39 0.39 0.41 0.40 0.32 0.30 0.29 0.25 0.27 0.37 0.45 0.53 0.50 0.36 0.28 0.20 0.19 0.17 0.15 0.13 0.09 0.04 0.02 0.02 0.04 0.09 0.04 0.01
0.01 0.01 0.00 0.00 0.01 0.08 0.30 0.32 0.47 0.53 0.56 0.85 0.84 0.80 0.66 0.62 0.87 1.01 0.86 0.75 0.73 0.68 0.77 0.64 0.55 0.66 0.74 0.61 0.47 0.30 0.22 0.18 0.13 0.07 0.02 0.00 0.00 0.01 0.02 0.04 0.02 0.00 0.00
0.00 0.00 0.01 0.02 0.03 0.06 0.22 0.56 0.97 0.79 0.72 0.81 0.97 0.89 0.78 0.64 0.75 0.70 0.76 0.71 0.63 0.68 0.66 0.70 0.57 0.52 0.48 0.34 0.27 0.19 0.12 0.06 0.01 0.00 0.00 0.00 0.01 0.01 0.04 0.03 0.01 0.00 0.00
0.03 0.04 0.05 0.14 0.19 0.29 0.61 0.84 0.99 0.90 0.89 0.92 0.79 0.66 0.55 0.71 0.67 0.69 0.53 0.61 0.53 0.41 0.37 0.33 0.30 0.20 0.12 0.04 0.01 0.00 0.00 0.00 0.00 0.00 0.00 0.00 0.01 0.03 0.03 0.02 0.00 0.00 0.01
0.19 0.07 0.22 0.66 0.79 0.59 0.55 0.45 0.50 0.47 0.26 0.37 0.34 0.37 0.26 0.32 0.42 0.27 0.25 0.23 0.19 0.13 0.07 0.03 0.01 0.00 0.00 0.00 0.00 0.00 0.00 0.00 0.00 0.01 0.00 0.00 0.02 0.02 0.00 0.00 0.00 0.01 0.01
0.07 0.01 0.07 0.12 0.09 0.04 0.01 0.03 0.05 0.05 0.00 0.00 0.00 0.00 0.00 0.00 0.01 0.00 0.00 0.00 0.00 0.00 0.00 0.00 0.00 0.00 0.00 0.00 0.00 0.00 0.00 0.00 0.01 0.01 0.01 0.01 0.00 0.00 0.00 0.00 0.00 0.00 0.00
0.00 0.00 0.00 0.00 0.00 0.00 0.00 0.00 0.00 0.00 0.00 0.00 0.00 0.00 0.00 0.00 0.00 0.00 0.00 0.00 0.00 0.00 0.00 0.00 0.00 0.00 0.00 0.00 0.00 0.00 0.00 0.01 0.01 0.00 0.00 0.00 0.00 0.00 0.00 0.00 0.00 0.00 0.00
0.04 0.07 0.09 0.08 0.04 0.01 0.00 0.00 0.00 0.00 0.00 0.00 0.00 0.00 0.00 0.00 0.00 0.00 0.00 0.00 0.00 0.00 0.00 0.00 0.00 0.00 0.00 0.00 0.00 0.00 0.01 0.01 0.01 0.01 0.00 0.00 0.00 0.00 0.00 0.00 0.00 0.00 0.00
0.00 0.01 0.03 0.06 0.07 0.05 0.02 0.00 0.00 0.00 0.00 0.00 0.00 0.00 0.00 0.00 0.00 0.00 0.00 0.00 0.00 0.00 0.00 0.00 0.00 0.00 0.00 0.00 0.00 0.01 0.01 0.01 0.01 0.00 0.00 0.00 0.00 0.00 0.00 0.00 0.00 0.00 0.00

GFSMW_prec_precacc_054.txt.gz
Total_Precipitation_Accumulation
0.00 0.00 0.00 0.00 0.00 0.00 0.00 0.00 0.01 0.02 0.09 0.11 0.09 0.14 0.10 0.13 0.17 0.17 0.25 0.28 0.20 0.19 0.22 0.17 0.10 0.02 0.00 0.01 0.03 0.06 0.12 0.14 0.18 0.15 0.01 0.01 0.00 0.00 0.00 0.00 0.00 0.00 0.00
0.00 0.00 0.00 0.00 0.00 0.00 0.00 0.00 0.00 0.00 0.03 0.09 0.13 0.18 0.19 0.12 0.09 0.15 0.11 0.15 0.13 0.14 0.17 0.19 0.20 0.16 0.07 0.07 0.13 0.15 0.15 0.10 0.17 0.17 0.05 0.00 0.00 0.00 0.00 0.00 0.00 0.00 0.00
0.00 0.00 0.00 0.00 0.00 0.00 0.00 0.00 0.00 0.01 0.04 0.10 0.15 0.20 0.24 0.16 0.09 0.05 0.02 0.05 0.12 0.14 0.20 0.33 0.25 0.14 0.14 0.12 0.19 0.19 0.21 0.17 0.13 0.11 0.10 0.02 0.00 0.00 0.00 0.00 0.00 0.00 0.00
0.00 0.00 0.00 0.00 0.00 0.00 0.00 0.00 0.00 0.01 0.04 0.09 0.08 0.08 0.05 0.06 0.06 0.07 0.16 0.20 0.18 0.21 0.21 0.31 0.35 0.27 0.15 0.14 0.15 0.20 0.19 0.16 0.12 0.12 0.08 0.08 0.03 0.03 0.01 0.01 0.01 0.01 0.00
0.00 0.00 0.00 0.00 0.00 0.00 0.00 0.00 0.00 0.00 0.01 0.09 0.09 0.10 0.06 0.06 0.07 0.13 0.19 0.18 0.18 0.21 0.22 0.23 0.23 0.26 0.21 0.25 0.25 0.20 0.17 0.18 0.18 0.15 0.15 0.13 0.11 0.06 0.06 0.06 0.05 0.04 0.03
0.00 0.00 0.00 0.00 0.00 0.00 0.00 0.00 0.00 0.00 0.01 0.02 0.06 0.07 0.06 0.04 0.09 0.09 0.11 0.13 0.14 0.15 0.16 0.18 0.19 0.26 0.31 0.31 0.31 0.34 0.30 0.27 0.23 0.18 0.17 0.18 0.18 0.15 0.12 0.14 0.11 0.11 0.10
0.00 0.00 0.00 0.00 0.00 0.00 0.00 0.00 0.00 0.00 0.00 0.00 0.02 0.03 0.04 0.06 0.08 0.12 0.14 0.11 0.10 0.08 0.09 0.16 0.18 0.19 0.24 0.27 0.32 0.31 0.31 0.31 0.28 0.23 0.20 0.22 0.24 0.24 0.25 0.22 0.18 0.14 0.10
0.00 0.00 0.00 0.00 0.00 0.00 0.00 0.00 0.00 0.00 0.00 0.01 0.02 0.04 0.05 0.08 0.11 0.14 0.11 0.10 0.10 0.11 0.15 0.15 0.17 0.19 0.21 0.21 0.23 0.24 0.24 0.24 0.25 0.26 0.24 0.22 0.21 0.25 0.28 0.29 0.27 0.23 0.14
0.00 0.00 0.00 0.00 0.00 0.00 0.00 0.00 0.00 0.00 0.01 0.03 0.07 0.06 0.05 0.08 0.08 0.10 0.10 0.11 0.10 0.12 0.15 0.15 0.15 0.18 0.20 0.22 0.24 0.24 0.22 0.22 0.23 0.22 0.20 0.15 0.13 0.16 0.16 0.18 0.22 0.36 0.42
0.00 0.00 0.00 0.00 0.00 0.00 0.00 0.00 0.00 0.02 0.03 0.06 0.10 0.03 0.05 0.07 0.07 0.07 0.05 0.06 0.09 0.10 0.10 0.10 0.12 0.15 0.18 0.19 0.20 0.22 0.19 0.22 0.22 0.23 0.27 0.28 0.26 0.22 0.22 0.23 0.28 0.36 0.56
0.00 0.00 0.00 0.00 0.00 0.00 0.00 0.00 0.01 0.04 0.06 0.05 0.03 0.02 0.04 0.06 0.07 0.07 0.05 0.05 0.07 0.07 0.07 0.08 0.09 0.09 0.09 0.10 0.13 0.17 0.27 0.36 0.42 0.46 0.47 0.48 0.45 0.48 0.54 0.63 0.75 0.88 0.99
0.00 0.00 0.00 0.00 0.00 0.00 0.00 0.00 0.05 0.07 0.03 0.02 0.02 0.02 0.03 0.04 0.05 0.05 0.07 0.07 0.07 0.05 0.05 0.05 0.04 0.04 0.06 0.09 0.10 0.11 0.13 0.17 0.23 0.29 0.35 0.40 0.41 0.42 0.42 0.47 0.56 0.72 0.90
0.00 0.02 0.00 0.00 0.01 0.02 0.07 0.12 0.10 0.03 0.04 0.04 0.03 0.03 0.04 0.05 0.06 0.06 0.06 0.06 0.06 0.06 0.05 0.04 0.03 0.02 0.02 0.03 0.05 0.08 0.12 0.17 0.25 0.29 0.31 0.34 0.36 0.39 0.39 0.43 0.49 0.58 0.65
0.00 0.00 0.01 0.00 0.06 0.15 0.25 0.15 0.12 0.10 0.10 0.09 0.07 0.08 0.07 0.08 0.07 0.07 0.06 0.05 0.05 0.05 0.04 0.05 0.05 0.06 0.06 0.07 0.09 0.08 0.08 0.07 0.07 0.08 0.11 0.17 0.26 0.37 0.51 0.69 0.77 0.68 0.52
0.00 0.00 0.01 0.01 0.05 0.19 0.18 0.17 0.20 0.19 0.16 0.15 0.12 0.07 0.06 0.08 0.07 0.06 0.07 0.05 0.05 0.04 0.04 0.08 0.14 0.16 0.16 0.19 0.18 0.17 0.17 0.18 0.21 0.23 0.27 0.32 0.40 0.44 0.42 0.34 0.28 0.24 0.21
0.00 0.00 0.00 0.00 0.02 0.08 0.15 0.15 0.19 0.17 0.10 0.10 0.09 0.07 0.05 0.06 0.08 0.09 0.09 0.09 0.09 0.10 0.10 0.13 0.14 0.17 0.21 0.36 0.30 0.25 0.26 0.28 0.29 0.31 0.33 0.36 0.40 0.33 0.30 0.22 0.14 0.11 0.17
0.00 0.00 0.00 0.00 0.02 0.11 0.19 0.61 0.74 0.37 0.09 0.21 0.16 0.12 0.08 0.09 0.12 0.14 0.16 0.14 0.12 0.15 0.24 0.25 0.20 0.16 0.15 0.28 0.22 0.21 0.20 0.23 0.25 0.25 0.22 0.19 0.17 0.13 0.10 0.09 0.07 0.12 0.09
0.00 0.00 0.00 0.00 0.02 0.13 0.53 0.65 0.86 0.35 0.16 0.29 0.47 0.52 0.47 0.39 0.39 0.41 0.40 0.32 0.30 0.29 0.25 0.27 0.37 0.45 0.53 0.50 0.36 0.28 0.20 0.19 0.17 0.15 0.13 0.09 0.04 0.02 0.02 0.04 0.09 0.04 0.01
0.01 0.01 0.00 0.00 0.01 0.08 0.30 0.32 0.47 0.53 0.56 0.85 0.84 0.80 0.66 0.62 0.87 1.01 0.86 0.75 0.73 0.68 0.77 0.64 0.55 0.66 0.74 0.61 0.47 0.30 0.22 0.18 0.13 0.07 0.02 0.00 0.00 0.01 0.02 0.04 0.02 0.00 0.00
0.00 0.00 0.01 0.02 0.03 0.06 0.22 0.56 0.97 0.79 0.72 0.81 0.97 0.89 0.78 0.64 0.75 0.70 0.76 0.71 0.63 0.68 0.66 0.70 0.57 0.52 0.48 0.34 0.27 0.19 0.12 0.06 0.01 0.00 0.00 0.00 0.01 0.01 0.04 0.03 0.01 0.00 0.00
0.03 0.04 0.05 0.14 0.19 0.29 0.61 0.84 0.99 0.90 0.89 0.92 0.79 0.66 0.55 0.71 0.67 0.69 0.53 0.61 0.53 0.41 0.37 0.33 0.30 0.20 0.12 0.04 0.01 0.00 0.00 0.00 0.00 0.00 0.00 0.00 0.01 0.03 0.03 0.02 0.00 0.00 0.01
0.19 0.07 0.22 0.66 0.79 0.59 0.55 0.45 0.50 0.47 0.26 0.37 0.34 0.37 0.26 0.32 0.42 0.27 0.25 0.23 0.19 0.13 0.07 0.03 0.01 0.00 0.00 0.00 0.00 0.00 0.00 0.00 0.00 0.01 0.00 0.00 0.02 0.02 0.00 0.00 0.00 0.01 0.01
0.07 0.01 0.07 0.12 0.09 0.04 0.01 0.03 0.05 0.05 0.00 0.00 0.00 0.00 0.00 0.00 0.01 0.00 0.00 0.00 0.00 0.00 0.00 0.00 0.00 0.00 0.00 0.00 0.00 0.00 0.00 0.00 0.01 0.01 0.01 0.01 0.00 0.00 0.00 0.00 0.00 0.00 0.00
0.00 0.00 0.00 0.00 0.00 0.00 0.00 0.00 0.00 0.00 0.00 0.00 0.00 0.00 0.00 0.00 0.00 0.00 0.00 0.00 0.00 0.00 0.00 0.00 0.00 0.00 0.00 0.00 0.00 0.00 0.00 0.01 0.01 0.00 0.00 0.00 0.00 0.00 0.00 0.00 0.00 0.00 0.00
0.04 0.07 0.09 0.09 0.05 0.01 0.01 0.01 0.01 0.01 0.01 0.00 0.00 0.00 0.00 0.00 0.00 0.00 0.00 0.00 0.00 0.00 0.00 0.00 0.00 0.00 0.00 0.00 0.00 0.00 0.01 0.01 0.01 0.01 0.00 0.00 0.00 0.00 0.00 0.00 0.00 0.00 0.00
0.00 0.01 0.06 0.12 0.17 0.16 0.12 0.06 0.04 0.02 0.00 0.00 0.00 0.00 0.00 0.00 0.00 0.00 0.00 0.00 0.00 0.00 0.00 0.00 0.00 0.00 0.00 0.00 0.00 0.01 0.01 0.01 0.01 0.00 0.00 0.00 0.00 0.00 0.00 0.00 0.00 0.00 0.00

GFSMW_prec_precacc_060.txt.gz
Total_Precipitation_Accumulation
0.00 0.00 0.00 0.00 0.00 0.01 0.01 0.00 0.02 0.02 0.09 0.11 0.09 0.14 0.10 0.13 0.17 0.17 0.25 0.28 0.20 0.19 0.22 0.17 0.10 0.02 0.01 0.01 0.04 0.07 0.13 0.14 0.19 0.15 0.01 0.01 0.00 0.00 0.00 0.00 0.00 0.00 0.00
0.00 0.00 0.00 0.00 0.00 0.01 0.05 0.00 0.00 0.00 0.03 0.09 0.13 0.18 0.20 0.13 0.10 0.15 0.11 0.15 0.13 0.14 0.17 0.19 0.20 0.17 0.08 0.07 0.14 0.16 0.17 0.12 0.18 0.19 0.06 0.00 0.00 0.00 0.00 0.00 0.00 0.00 0.00
0.00 0.00 0.00 0.00 0.00 0.00 0.02 0.07 0.02 0.01 0.04 0.10 0.15 0.20 0.28 0.18 0.11 0.07 0.02 0.05 0.12 0.14 0.20 0.33 0.26 0.14 0.15 0.13 0.20 0.21 0.24 0.19 0.14 0.12 0.10 0.02 0.00 0.00 0.00 0.00 0.00 0.00 0.00
0.00 0.00 0.00 0.00 0.00 0.00 0.00 0.02 0.08 0.07 0.07 0.11 0.10 0.16 0.14 0.10 0.09 0.07 0.16 0.20 0.18 0.21 0.21 0.31 0.35 0.27 0.15 0.14 0.15 0.20 0.19 0.16 0.12 0.12 0.08 0.09 0.04 0.03 0.02 0.01 0.01 0.01 0.00
0.00 0.00 0.00 0.00 0.00 0.00 0.00 0.00 0.01 0.02 0.04 0.11 0.10 0.12 0.08 0.07 0.08 0.13 0.19 0.18 0.18 0.21 0.22 0.23 0.23 0.26 0.21 0.25 0.25 0.20 0.17 0.18 0.18 0.15 0.15 0.14 0.12 0.06 0.07 0.07 0.05 0.04 0.03
0.00 0.00 0.00 0.00 0.00 0.00 0.00 0.00 0.00 0.00 0.01 0.03 0.06 0.08 0.06 0.05 0.09 0.09 0.11 0.13 0.14 0.15 0.16 0.18 0.19 0.26 0.31 0.31 0.31 0.34 0.30 0.27 0.23 0.18 0.18 0.19 0.19 0.15 0.12 0.14 0.11 0.11 0.10
0.00 0.00 0.00 0.00 0.00 0.00 0.00 0.00 0.00 0.00 0.00 0.00 0.02 0.03 0.04 0.06 0.08 0.12 0.14 0.11 0.10 0.08 0.09 0.16 0.18 0.19 0.24 0.27 0.32 0.31 0.31 0.32 0.29 0.24 0.21 0.24 0.26 0.26 0.27 0.23 0.19 0.14 0.10
0.00 0.00 0.00 0.00 0.00 0.00 0.00 0.00 0.00 0.00 0.00 0.01 0.02 0.04 0.05 0.08 0.11 0.14 0.11 0.10 0.10 0.11 0.15 0.15 0.17 0.19 0.21 0.21 0.23 0.25 0.25 0.25 0.26 0.28 0.25 0.24 0.23 0.28 0.32 0.32 0.28 0.23 0.14
0.00 0.00 0.00 0.00 0.00 0.00 0.00 0.00 0.00 0.00 0.01 0.03 0.07 0.06 0.05 0.08 0.08 0.10 0.10 0.11 0.10 0.12 0.15 0.15 0.15 0.18 0.20 0.22 0.24 0.24 0.22 0.22 0.24 0.23 0.21 0.15 0.14 0.17 0.17 0.18 0.22 0.36 0.42
0.00 0.00 0.00 0.00 0.00 0.00 0.00 0.00 0.00 0.02 0.03 0.06 0.10 0.03 0.05 0.07 0.07 0.07 0.05 0.06 0.09 0.10 0.10 0.10 0.12 0.15 0.18 0.19 0.20 0.22 0.19 0.22 0.22 0.24 0.27 0.28 0.26 0.23 0.22 0.23 0.28 0.36 0.56
0.00 0.00 0.00 0.00 0.00 0.00 0.00 0.00 0.01 0.04 0.06 0.05 0.03 0.02 0.04 0.06 0.07 0.07 0.05 0.05 0.07 0.07 0.07 0.08 0.09 0.09 0.09 0.10 0.13 0.17 0.27 0.36 0.42 0.46 0.47 0.48 0.45 0.48 0.54 0.63 0.75 0.88 0.99
0.00 0.00 0.00 0.00 0.00 0.00 0.00 0.00 0.05 0.07 0.03 0.02 0.02 0.02 0.03 0.04 0.05 0.05 0.07 0.07 0.07 0.05 0.05 0.05 0.04 0.04 0.06 0.09 0.10 0.11 0.13 0.17 0.23 0.29 0.35 0.40 0.41 0.42 0.42 0.47 0.56 0.72 0.90
0.00 0.02 0.00 0.00 0.01 0.02 0.07 0.12 0.10 0.03 0.04 0.04 0.03 0.03 0.04 0.05 0.06 0.06 0.06 0.06 0.06 0.06 0.05 0.04 0.03 0.02 0.02 0.03 0.05 0.08 0.12 0.17 0.25 0.29 0.31 0.34 0.36 0.39 0.39 0.43 0.49 0.58 0.65
0.00 0.00 0.01 0.00 0.06 0.15 0.25 0.15 0.12 0.10 0.10 0.09 0.07 0.08 0.07 0.08 0.07 0.07 0.06 0.05 0.05 0.05 0.04 0.05 0.05 0.06 0.06 0.07 0.09 0.08 0.08 0.07 0.07 0.08 0.11 0.17 0.26 0.37 0.51 0.69 0.77 0.68 0.52
0.00 0.00 0.01 0.01 0.05 0.19 0.18 0.17 0.20 0.19 0.16 0.15 0.12 0.07 0.06 0.08 0.07 0.06 0.07 0.05 0.05 0.04 0.04 0.08 0.14 0.16 0.16 0.19 0.18 0.17 0.17 0.18 0.21 0.23 0.27 0.32 0.40 0.44 0.42 0.34 0.28 0.24 0.21
0.00 0.00 0.00 0.00 0.02 0.08 0.15 0.15 0.19 0.17 0.10 0.10 0.09 0.07 0.05 0.06 0.08 0.09 0.09 0.09 0.09 0.10 0.10 0.13 0.14 0.17 0.21 0.36 0.30 0.25 0.26 0.28 0.29 0.31 0.33 0.36 0.40 0.34 0.30 0.22 0.14 0.11 0.17
0.00 0.00 0.00 0.00 0.02 0.11 0.19 0.61 0.74 0.37 0.09 0.21 0.16 0.12 0.08 0.09 0.12 0.14 0.16 0.14 0.12 0.15 0.24 0.25 0.20 0.16 0.15 0.28 0.23 0.22 0.20 0.23 0.25 0.25 0.22 0.19 0.17 0.13 0.10 0.09 0.07 0.12 0.09
0.00 0.00 0.00 0.00 0.02 0.13 0.53 0.65 0.86 0.35 0.16 0.29 0.47 0.52 0.47 0.39 0.39 0.41 0.40 0.32 0.30 0.29 0.25 0.27 0.37 0.45 0.53 0.50 0.36 0.28 0.20 0.19 0.17 0.15 0.13 0.09 0.04 0.02 0.02 0.04 0.09 0.04 0.01
0.01 0.01 0.00 0.00 0.01 0.08 0.30 0.32 0.47 0.53 0.56 0.85 0.84 0.80 0.66 0.62 0.87 1.01 0.86 0.75 0.73 0.68 0.77 0.64 0.55 0.66 0.74 0.61 0.47 0.30 0.22 0.18 0.13 0.07 0.02 0.00 0.00 0.01 0.02 0.04 0.02 0.00 0.00
0.00 0.00 0.01 0.02 0.03 0.06 0.22 0.56 0.97 0.79 0.72 0.81 0.97 0.89 0.78 0.64 0.75 0.70 0.76 0.71 0.63 0.68 0.66 0.70 0.57 0.52 0.48 0.34 0.27 0.19 0.12 0.06 0.01 0.00 0.00 0.00 0.01 0.01 0.04 0.03 0.01 0.00 0.00
0.03 0.04 0.05 0.14 0.19 0.29 0.61 0.84 0.99 0.90 0.89 0.92 0.79 0.66 0.55 0.71 0.67 0.69 0.53 0.61 0.53 0.41 0.37 0.33 0.30 0.20 0.12 0.04 0.01 0.00 0.00 0.00 0.00 0.00 0.00 0.00 0.01 0.03 0.03 0.02 0.00 0.00 0.01
0.19 0.07 0.22 0.66 0.79 0.59 0.55 0.45 0.50 0.47 0.26 0.37 0.34 0.37 0.26 0.32 0.42 0.27 0.25 0.23 0.19 0.13 0.07 0.03 0.01 0.00 0.00 0.00 0.00 0.00 0.00 0.00 0.00 0.01 0.00 0.00 0.02 0.02 0.00 0.00 0.00 0.01 0.01
0.07 0.01 0.07 0.12 0.09 0.04 0.01 0.03 0.05 0.05 0.00 0.00 0.00 0.00 0.00 0.00 0.01 0.00 0.00 0.00 0.00 0.00 0.00 0.00 0.00 0.00 0.00 0.00 0.00 0.00 0.00 0.00 0.01 0.01 0.01 0.01 0.00 0.00 0.00 0.00 0.00 0.00 0.00
0.00 0.00 0.00 0.00 0.00 0.00 0.00 0.00 0.00 0.00 0.00 0.00 0.00 0.00 0.00 0.00 0.00 0.00 0.00 0.00 0.00 0.00 0.00 0.00 0.00 0.00 0.00 0.00 0.00 0.00 0.00 0.01 0.01 0.00 0.00 0.00 0.00 0.00 0.00 0.00 0.00 0.00 0.00
0.04 0.07 0.09 0.09 0.05 0.01 0.01 0.01 0.01 0.02 0.03 0.02 0.02 0.01 0.01 0.00 0.00 0.00 0.00 0.00 0.00 0.00 0.00 0.00 0.00 0.00 0.00 0.00 0.00 0.00 0.01 0.01 0.01 0.01 0.00 0.00 0.00 0.00 0.00 0.00 0.00 0.00 0.00
0.00 0.01 0.06 0.12 0.19 0.19 0.17 0.12 0.08 0.07 0.05 0.05 0.03 0.02 0.01 0.00 0.00 0.00 0.00 0.00 0.00 0.00 0.00 0.00 0.00 0.00 0.00 0.00 0.00 0.01 0.01 0.01 0.01 0.00 0.00 0.00 0.00 0.00 0.00 0.00 0.00 0.00 0.00

GFSMW_prec_precacc_063.txt.gz
Total_Precipitation_Accumulation
0.00 0.00 0.00 0.00 0.01 0.07 0.15 0.12 0.09 0.04 0.09 0.11 0.09 0.14 0.10 0.13 0.17 0.17 0.25 0.28 0.20 0.19 0.22 0.17 0.10 0.02 0.01 0.01 0.04 0.07 0.13 0.14 0.19 0.16 0.02 0.01 0.00 0.00 0.00 0.00 0.00 0.00 0.00
0.00 0.00 0.00 0.00 0.00 0.05 0.12 0.10 0.12 0.08 0.03 0.09 0.13 0.18 0.20 0.13 0.10 0.15 0.11 0.15 0.13 0.14 0.18 0.19 0.20 0.17 0.08 0.07 0.14 0.17 0.17 0.12 0.18 0.20 0.06 0.01 0.00 0.00 0.00 0.00 0.00 0.00 0.00
0.00 0.00 0.00 0.00 0.00 0.00 0.03 0.08 0.09 0.06 0.11 0.11 0.16 0.22 0.28 0.19 0.13 0.10 0.02 0.06 0.12 0.15 0.20 0.33 0.26 0.14 0.15 0.13 0.20 0.21 0.24 0.20 0.15 0.13 0.11 0.03 0.00 0.00 0.00 0.00 0.00 0.00 0.00
0.00 0.00 0.00 0.00 0.00 0.00 0.00 0.02 0.16 0.19 0.12 0.15 0.17 0.29 0.24 0.17 0.14 0.11 0.16 0.20 0.18 0.21 0.21 0.31 0.35 0.27 0.15 0.14 0.15 0.20 0.19 0.16 0.12 0.12 0.08 0.09 0.05 0.04 0.02 0.01 0.01 0.01 0.00
0.00 0.00 0.00 0.00 0.00 0.00 0.00 0.00 0.06 0.11 0.20 0.33 0.32 0.28 0.19 0.15 0.12 0.15 0.20 0.20 0.19 0.21 0.22 0.23 0.23 0.26 0.21 0.25 0.25 0.20 0.17 0.18 0.18 0.15 0.15 0.14 0.12 0.07 0.07 0.07 0.05 0.04 0.03
0.00 0.00 0.00 0.00 0.00 0.00 0.00 0.00 0.00 0.01 0.06 0.09 0.14 0.17 0.14 0.10 0.14 0.12 0.13 0.14 0.14 0.15 0.16 0.18 0.19 0.26 0.31 0.31 0.31 0.34 0.30 0.27 0.23 0.18 0.18 0.19 0.19 0.15 0.12 0.15 0.12 0.11 0.10
0.00 0.00 0.00 0.00 0.00 0.00 0.00 0.00 0.00 0.00 0.01 0.03 0.04 0.05 0.05 0.08 0.10 0.13 0.14 0.11 0.10 0.08 0.09 0.16 0.18 0.19 0.24 0.27 0.32 0.31 0.31 0.32 0.29 0.24 0.21 0.24 0.27 0.26 0.27 0.23 0.19 0.15 0.11
0.00 0.00 0.00 0.00 0.00 0.00 0.00 0.00 0.00 0.00 0.00 0.01 0.02 0.05 0.05 0.08 0.11 0.14 0.11 0.10 0.10 0.11 0.15 0.15 0.17 0.19 0.21 0.21 0.23 0.25 0.25 0.25 0.26 0.28 0.26 0.25 0.24 0.28 0.32 0.33 0.29 0.24 0.14
0.00 0.00 0.00 0.00 0.00 0.00 0.00 0.00 0.00 0.00 0.01 0.03 0.07 0.06 0.05 0.08 0.08 0.10 0.10 0.11 0.10 0.12 0.15 0.15 0.15 0.18 0.20 0.22 0.24 0.24 0.22 0.22 0.24 0.23 0.21 0.15 0.14 0.17 0.19 0.20 0.24 0.37 0.42
0.00 0.00 0.00 0.00 0.00 0.00 0.00 0.00 0.00 0.02 0.03 0.06 0.10 0.03 0.05 0.07 0.07 0.07 0.05 0.06 0.09 0.10 0.10 0.10 0.12 0.15 0.18 0.19 0.20 0.22 0.19 0.22 0.22 0.24 0.27 0.28 0.26 0.23 0.22 0.24 0.28 0.36 0.56
0.00 0.00 0.00 0.00 0.00 0.00 0.00 0.00 0.01 0.04 0.06 0.05 0.03 0.02 0.04 0.06 0.07 0.07 0.05 0.05 0.07 0.07 0.07 0.08 0.09 0.09 0.09 0.10 0.13 0.17 0.27 0.36 0.42 0.46 0.47 0.48 0.45 0.48 0.54 0.63 0.75 0.88 0.99
0.00 0.00 0.00 0.00 0.00 0.00 0.00 0.00 0.05 0.07 0.03 0.02 0.02 0.02 0.03 0.04 0.05 0.05 0.07 0.07 0.07 0.05 0.05 0.05 0.04 0.04 0.06 0.09 0.10 0.11 0.13 0.17 0.23 0.29 0.35 0.40 0.41 0.42 0.42 0.47 0.56 0.72 0.90
0.00 0.02 0.00 0.00 0.01 0.02 0.07 0.12 0.10 0.03 0.04 0.04 0.03 0.03 0.04 0.05 0.06 0.06 0.06 0.06 0.06 0.06 0.05 0.04 0.03 0.02 0.02 0.03 0.05 0.08 0.12 0.17 0.25 0.29 0.31 0.34 0.36 0.39 0.39 0.43 0.49 0.58 0.65
0.00 0.00 0.01 0.00 0.06 0.15 0.25 0.15 0.12 0.10 0.10 0.09 0.07 0.08 0.07 0.08 0.07 0.07 0.06 0.05 0.05 0.05 0.04 0.05 0.05 0.06 0.06 0.07 0.09 0.08 0.08 0.07 0.07 0.08 0.11 0.17 0.26 0.37 0.51 0.69 0.77 0.68 0.52
0.00 0.00 0.01 0.01 0.05 0.19 0.18 0.17 0.20 0.19 0.16 0.15 0.12 0.07 0.06 0.08 0.07 0.06 0.07 0.05 0.05 0.04 0.04 0.08 0.14 0.16 0.16 0.19 0.18 0.17 0.17 0.18 0.21 0.23 0.27 0.32 0.40 0.44 0.42 0.34 0.28 0.24 0.21
0.00 0.00 0.00 0.00 0.02 0.08 0.15 0.15 0.19 0.17 0.10 0.10 0.09 0.07 0.05 0.06 0.08 0.09 0.09 0.09 0.09 0.10 0.10 0.13 0.14 0.17 0.21 0.37 0.31 0.25 0.26 0.28 0.29 0.31 0.33 0.36 0.40 0.34 0.30 0.22 0.14 0.11 0.17
0.00 0.00 0.00 0.00 0.02 0.11 0.19 0.61 0.74 0.37 0.09 0.21 0.16 0.12 0.08 0.09 0.12 0.14 0.16 0.14 0.12 0.15 0.24 0.25 0.20 0.16 0.15 0.29 0.23 0.22 0.20 0.23 0.25 0.25 0.22 0.19 0.17 0.13 0.10 0.09 0.07 0.12 0.09
0.00 0.00 0.00 0.00 0.02 0.13 0.53 0.65 0.86 0.35 0.16 0.29 0.47 0.52 0.47 0.39 0.39 0.41 0.40 0.32 0.30 0.29 0.25 0.27 0.37 0.45 0.53 0.51 0.36 0.28 0.20 0.19 0.17 0.15 0.13 0.09 0.04 0.02 0.02 0.04 0.09 0.04 0.01
0.01 0.01 0.00 0.00 0.01 0.08 0.30 0.32 0.47 0.53 0.56 0.85 0.84 0.80 0.66 0.62 0.87 1.01 0.86 0.75 0.73 0.68 0.77 0.64 0.55 0.66 0.74 0.61 0.47 0.30 0.22 0.18 0.13 0.07 0.02 0.00 0.00 0.01 0.02 0.04 0.02 0.00 0.00
0.00 0.00 0.01 0.02 0.03 0.06 0.22 0.56 0.97 0.79 0.72 0.81 0.97 0.89 0.78 0.64 0.75 0.70 0.76 0.71 0.63 0.68 0.66 0.70 0.57 0.52 0.48 0.34 0.27 0.19 0.12 0.06 0.01 0.00 0.00 0.00 0.01 0.01 0.04 0.03 0.01 0.00 0.00
0.03 0.04 0.05 0.14 0.19 0.29 0.61 0.84 0.99 0.90 0.89 0.92 0.79 0.66 0.55 0.71 0.67 0.69 0.53 0.61 0.53 0.41 0.37 0.33 0.30 0.20 0.12 0.04 0.01 0.00 0.00 0.00 0.00 0.00 0.00 0.00 0.01 0.03 0.03 0.02 0.00 0.00 0.01
0.19 0.07 0.22 0.66 0.79 0.59 0.55 0.45 0.50 0.47 0.26 0.37 0.34 0.37 0.26 0.32 0.42 0.27 0.25 0.23 0.19 0.13 0.07 0.03 0.01 0.00 0.00 0.00 0.00 0.00 0.00 0.00 0.00 0.01 0.00 0.00 0.02 0.02 0.00 0.00 0.00 0.01 0.01
0.07 0.01 0.07 0.12 0.09 0.04 0.01 0.03 0.05 0.05 0.00 0.00 0.00 0.00 0.00 0.00 0.01 0.00 0.00 0.00 0.00 0.00 0.00 0.00 0.00 0.00 0.00 0.00 0.00 0.00 0.00 0.00 0.01 0.01 0.01 0.01 0.00 0.00 0.00 0.00 0.00 0.00 0.00
0.00 0.00 0.00 0.00 0.00 0.00 0.00 0.00 0.00 0.00 0.00 0.00 0.00 0.00 0.00 0.00 0.00 0.00 0.00 0.00 0.00 0.00 0.00 0.00 0.00 0.00 0.00 0.00 0.00 0.00 0.00 0.01 0.01 0.00 0.00 0.00 0.00 0.00 0.00 0.00 0.00 0.00 0.00
0.04 0.07 0.09 0.09 0.05 0.01 0.01 0.01 0.01 0.02 0.03 0.02 0.02 0.01 0.01 0.00 0.00 0.00 0.00 0.00 0.00 0.00 0.00 0.00 0.00 0.00 0.00 0.00 0.00 0.00 0.01 0.01 0.01 0.01 0.00 0.00 0.00 0.00 0.00 0.00 0.00 0.00 0.00
0.00 0.01 0.06 0.12 0.19 0.19 0.17 0.12 0.08 0.07 0.05 0.05 0.03 0.02 0.01 0.00 0.00 0.00 0.00 0.00 0.00 0.00 0.00 0.00 0.00 0.00 0.00 0.00 0.00 0.01 0.01 0.01 0.01 0.00 0.00 0.00 0.00 0.00 0.00 0.00 0.00 0.00 0.00

GFSMW_prec_precacc_066.txt.gz
Total_Precipitation_Accumulation
0.00 0.00 0.00 0.00 0.03 0.13 0.26 0.25 0.21 0.12 0.10 0.12 0.10 0.14 0.10 0.14 0.17 0.17 0.25 0.28 0.20 0.19 0.22 0.17 0.10 0.02 0.01 0.01 0.04 0.07 0.13 0.15 0.19 0.16 0.02 0.01 0.00 0.00 0.00 0.00 0.00 0.00 0.00
0.00 0.00 0.00 0.00 0.00 0.08 0.15 0.18 0.18 0.21 0.05 0.09 0.14 0.18 0.20 0.13 0.10 0.15 0.11 0.16 0.13 0.15 0.18 0.20 0.21 0.17 0.08 0.07 0.15 0.17 0.18 0.12 0.19 0.20 0.07 0.01 0.00 0.00 0.00 0.00 0.00 0.00 0.00
0.00 0.00 0.00 0.00 0.00 0.00 0.03 0.08 0.09 0.08 0.16 0.19 0.30 0.25 0.28 0.19 0.13 0.10 0.02 0.06 0.13 0.15 0.21 0.34 0.26 0.14 0.15 0.13 0.20 0.21 0.25 0.20 0.15 0.13 0.12 0.03 0.00 0.00 0.00 0.00 0.00 0.00 0.00
0.00 0.00 0.00 0.00 0.00 0.00 0.00 0.03 0.20 0.24 0.25 0.28 0.39 0.52 0.48 0.40 0.33 0.27 0.21 0.22 0.21 0.24 0.23 0.31 0.35 0.27 0.15 0.14 0.15 0.20 0.19 0.16 0.12 0.12 0.08 0.09 0.05 0.05 0.02 0.01 0.01 0.01 0.00
0.00 0.00 0.00 0.00 0.00 0.00 0.00 0.02 0.16 0.20 0.26 0.43 0.45 0.47 0.31 0.24 0.25 0.29 0.40 0.39 0.38 0.36 0.31 0.28 0.24 0.26 0.21 0.25 0.25 0.20 0.17 0.18 0.18 0.15 0.15 0.14 0.12 0.07 0.07 0.07 0.05 0.04 0.03
0.00 0.00 0.00 0.00 0.00 0.00 0.00 0.00 0.05 0.08 0.10 0.16 0.24 0.30 0.24 0.20 0.22 0.23 0.26 0.24 0.21 0.20 0.20 0.20 0.19 0.26 0.31 0.31 0.31 0.34 0.30 0.27 0.23 0.18 0.18 0.19 0.19 0.15 0.12 0.15 0.12 0.11 0.10
0.00 0.00 0.00 0.00 0.00 0.00 0.00 0.00 0.00 0.02 0.04 0.12 0.12 0.14 0.13 0.12 0.15 0.18 0.18 0.14 0.11 0.09 0.10 0.16 0.18 0.19 0.24 0.27 0.32 0.31 0.31 0.32 0.29 0.24 0.21 0.24 0.27 0.26 0.27 0.23 0.20 0.15 0.11
0.00 0.00 0.00 0.00 0.00 0.00 0.00 0.00 0.00 0.00 0.00 0.03 0.05 0.16 0.15 0.12 0.14 0.16 0.13 0.11 0.10 0.11 0.15 0.15 0.17 0.19 0.21 0.21 0.23 0.25 0.25 0.25 0.26 0.28 0.26 0.25 0.24 0.28 0.32 0.33 0.30 0.25 0.14
0.00 0.00 0.00 0.00 0.00 0.00 0.00 0.00 0.00 0.00 0.01 0.03 0.07 0.07 0.07 0.11 0.10 0.10 0.10 0.11 0.10 0.12 0.15 0.15 0.15 0.18 0.20 0.22 0.24 0.24 0.22 0.22 0.24 0.23 0.21 0.15 0.14 0.17 0.19 0.21 0.24 0.38 0.44
0.00 0.00 0.00 0.00 0.00 0.00 0.00 0.00 0.00 0.02 0.03 0.06 0.10 0.03 0.05 0.07 0.07 0.07 0.05 0.06 0.09 0.10 0.10 0.10 0.12 0.15 0.18 0.19 0.20 0.22 0.19 0.22 0.22 0.24 0.27 0.28 0.26 0.23 0.22 0.24 0.29 0.37 0.57
0.00 0.00 0.00 0.00 0.00 0.00 0.00 0.00 0.01 0.04 0.06 0.05 0.03 0.02 0.04 0.06 0.07 0.07 0.05 0.05 0.07 0.07 0.07 0.08 0.09 0.09 0.09 0.10 0.13 0.17 0.27 0.36 0.42 0.46 0.47 0.48 0.45 0.48 0.54 0.63 0.75 0.88 0.99
0.00 0.00 0.00 0.00 0.00 0.00 0.00 0.00 0.05 0.07 0.03 0.02 0.02 0.02 0.03 0.04 0.05 0.05 0.07 0.07 0.07 0.05 0.05 0.05 0.04 0.04 0.06 0.09 0.10 0.11 0.13 0.17 0.23 0.29 0.36 0.40 0.41 0.42 0.42 0.47 0.56 0.72 0.90
0.00 0.02 0.00 0.00 0.01 0.02 0.07 0.12 0.10 0.03 0.04 0.04 0.03 0.03 0.04 0.05 0.06 0.06 0.06 0.06 0.06 0.06 0.05 0.04 0.03 0.02 0.02 0.03 0.05 0.08 0.12 0.17 0.25 0.29 0.31 0.34 0.36 0.39 0.39 0.43 0.49 0.58 0.65
0.00 0.00 0.01 0.00 0.06 0.15 0.25 0.15 0.12 0.10 0.10 0.09 0.07 0.08 0.07 0.08 0.07 0.07 0.06 0.05 0.05 0.05 0.04 0.05 0.05 0.06 0.06 0.07 0.09 0.08 0.08 0.07 0.07 0.08 0.11 0.17 0.26 0.37 0.51 0.69 0.77 0.68 0.52
0.00 0.00 0.01 0.01 0.05 0.19 0.18 0.17 0.20 0.19 0.16 0.15 0.12 0.07 0.06 0.08 0.07 0.06 0.07 0.05 0.05 0.04 0.04 0.08 0.14 0.16 0.16 0.19 0.18 0.17 0.17 0.18 0.21 0.23 0.27 0.32 0.40 0.45 0.42 0.34 0.28 0.24 0.21
0.00 0.00 0.00 0.00 0.02 0.08 0.15 0.15 0.19 0.17 0.10 0.10 0.09 0.07 0.05 0.06 0.08 0.09 0.09 0.09 0.09 0.10 0.10 0.13 0.14 0.17 0.21 0.37 0.31 0.25 0.26 0.28 0.29 0.31 0.33 0.36 0.40 0.34 0.30 0.22 0.14 0.11 0.17
0.00 0.00 0.00 0.00 0.02 0.11 0.19 0.61 0.74 0.37 0.09 0.21 0.16 0.12 0.08 0.09 0.12 0.14 0.16 0.14 0.12 0.15 0.24 0.25 0.20 0.16 0.15 0.29 0.24 0.22 0.20 0.23 0.25 0.25 0.22 0.19 0.17 0.13 0.10 0.09 0.07 0.12 0.09
0.00 0.00 0.00 0.00 0.02 0.13 0.53 0.65 0.86 0.35 0.16 0.29 0.47 0.52 0.47 0.39 0.39 0.41 0.40 0.32 0.30 0.29 0.25 0.27 0.37 0.45 0.54 0.51 0.36 0.28 0.20 0.19 0.17 0.15 0.13 0.09 0.04 0.02 0.02 0.04 0.09 0.04 0.01
0.01 0.01 0.00 0.00 0.01 0.08 0.30 0.32 0.47 0.53 0.56 0.85 0.84 0.80 0.66 0.62 0.87 1.01 0.86 0.75 0.73 0.68 0.77 0.64 0.55 0.66 0.74 0.61 0.47 0.30 0.22 0.18 0.13 0.07 0.02 0.00 0.00 0.01 0.02 0.04 0.02 0.00 0.00
0.00 0.00 0.01 0.02 0.03 0.06 0.22 0.56 0.97 0.79 0.72 0.81 0.97 0.89 0.78 0.64 0.75 0.70 0.76 0.71 0.63 0.68 0.66 0.70 0.57 0.52 0.48 0.35 0.27 0.19 0.12 0.06 0.01 0.00 0.00 0.00 0.01 0.01 0.04 0.03 0.01 0.00 0.00
0.03 0.04 0.05 0.14 0.19 0.29 0.61 0.84 0.99 0.90 0.89 0.92 0.79 0.66 0.55 0.71 0.67 0.69 0.53 0.61 0.53 0.41 0.37 0.33 0.30 0.21 0.12 0.04 0.01 0.00 0.00 0.00 0.00 0.00 0.00 0.00 0.01 0.03 0.03 0.02 0.00 0.00 0.01
0.19 0.07 0.22 0.66 0.79 0.59 0.55 0.45 0.50 0.47 0.26 0.37 0.34 0.37 0.26 0.32 0.42 0.27 0.25 0.23 0.19 0.13 0.07 0.03 0.01 0.00 0.00 0.00 0.00 0.00 0.00 0.00 0.01 0.01 0.00 0.00 0.02 0.02 0.00 0.00 0.00 0.01 0.01
0.07 0.01 0.07 0.12 0.09 0.04 0.01 0.03 0.05 0.05 0.00 0.00 0.00 0.00 0.00 0.00 0.01 0.00 0.00 0.00 0.00 0.00 0.00 0.00 0.00 0.00 0.00 0.00 0.00 0.00 0.00 0.00 0.01 0.01 0.01 0.01 0.00 0.00 0.00 0.00 0.00 0.00 0.00
0.00 0.00 0.00 0.00 0.00 0.00 0.00 0.00 0.00 0.00 0.00 0.00 0.00 0.00 0.00 0.00 0.00 0.00 0.00 0.00 0.00 0.00 0.00 0.00 0.00 0.00 0.00 0.00 0.00 0.00 0.00 0.01 0.01 0.00 0.00 0.00 0.00 0.00 0.00 0.00 0.00 0.00 0.00
0.04 0.07 0.09 0.09 0.05 0.01 0.01 0.01 0.01 0.02 0.03 0.02 0.02 0.01 0.01 0.00 0.00 0.00 0.00 0.00 0.00 0.00 0.00 0.00 0.00 0.00 0.00 0.00 0.00 0.00 0.01 0.01 0.01 0.01 0.00 0.00 0.00 0.00 0.00 0.00 0.00 0.00 0.00
0.00 0.01 0.06 0.12 0.19 0.19 0.17 0.12 0.08 0.07 0.05 0.05 0.03 0.02 0.01 0.00 0.00 0.00 0.00 0.00 0.00 0.00 0.00 0.00 0.00 0.00 0.00 0.00 0.00 0.01 0.01 0.01 0.01 0.00 0.00 0.00 0.00 0.00 0.00 0.00 0.01 0.00 0.00

GFSMW_prec_precacc_069.txt.gz
Total_Precipitation_Accumulation
0.00 0.00 0.01 0.05 0.14 0.18 0.40 0.32 0.31 0.25 0.24 0.28 0.21 0.22 0.16 0.18 0.20 0.21 0.26 0.29 0.20 0.19 0.22 0.17 0.10 0.02 0.01 0.01 0.04 0.07 0.13 0.15 0.19 0.16 0.02 0.01 0.00 0.00 0.00 0.00 0.00 0.00 0.00
0.00 0.00 0.00 0.00 0.01 0.13 0.25 0.19 0.20 0.23 0.06 0.12 0.16 0.22 0.30 0.19 0.11 0.16 0.11 0.16 0.14 0.15 0.18 0.20 0.21 0.17 0.08 0.07 0.15 0.17 0.18 0.12 0.19 0.21 0.07 0.01 0.00 0.00 0.00 0.00 0.00 0.00 0.00
0.00 0.00 0.00 0.00 0.00 0.02 0.08 0.12 0.10 0.08 0.16 0.20 0.36 0.33 0.41 0.23 0.15 0.11 0.02 0.07 0.14 0.18 0.24 0.36 0.28 0.17 0.17 0.13 0.20 0.21 0.25 0.20 0.15 0.13 0.12 0.03 0.00 0.00 0.00 0.00 0.00 0.00 0.00
0.00 0.00 0.00 0.00 0.00 0.00 0.01 0.07 0.30 0.38 0.42 0.49 0.64 0.69 0.71 0.59 0.46 0.41 0.35 0.32 0.33 0.40 0.39 0.45 0.46 0.34 0.19 0.15 0.15 0.20 0.19 0.16 0.12 0.12 0.08 0.09 0.05 0.05 0.02 0.01 0.01 0.01 0.00
0.00 0.00 0.00 0.00 0.00 0.00 0.00 0.04 0.20 0.26 0.32 0.49 0.56 0.67 0.55 0.46 0.37 0.36 0.49 0.51 0.53 0.55 0.52 0.48 0.36 0.32 0.24 0.27 0.25 0.20 0.17 0.18 0.18 0.15 0.15 0.14 0.12 0.07 0.08 0.07 0.05 0.04 0.03
0.00 0.00 0.00 0.00 0.00 0.00 0.00 0.00 0.05 0.08 0.12 0.18 0.28 0.38 0.31 0.32 0.34 0.32 0.34 0.33 0.31 0.28 0.26 0.24 0.20 0.27 0.31 0.31 0.31 0.34 0.30 0.27 0.23 0.18 0.18 0.19 0.19 0.15 0.12 0.15 0.12 0.11 0.10
0.00 0.00 0.00 0.00 0.00 0.00 0.00 0.00 0.00 0.02 0.05 0.17 0.21 0.27 0.21 0.20 0.24 0.28 0.29 0.22 0.18 0.13 0.11 0.17 0.18 0.19 0.24 0.27 0.32 0.31 0.31 0.32 0.29 0.24 0.21 0.24 0.27 0.26 0.27 0.23 0.20 0.15 0.11
0.00 0.00 0.00 0.00 0.00 0.00 0.00 0.00 0.00 0.00 0.01 0.06 0.12 0.22 0.26 0.24 0.24 0.27 0.21 0.17 0.14 0.13 0.17 0.16 0.17 0.19 0.21 0.21 0.23 0.25 0.25 0.25 0.26 0.28 0.26 0.25 0.24 0.28 0.32 0.34 0.31 0.26 0.15
0.00 0.00 0.00 0.00 0.00 0.00 0.00 0.00 0.00 0.00 0.01 0.03 0.07 0.07 0.09 0.17 0.17 0.17 0.14 0.14 0.13 0.13 0.15 0.15 0.15 0.18 0.20 0.22 0.24 0.24 0.22 0.22 0.24 0.23 0.21 0.15 0.14 0.17 0.19 0.21 0.26 0.41 0.45
0.00 0.00 0.00 0.00 0.00 0.00 0.00 0.00 0.00 0.02 0.03 0.06 0.10 0.03 0.05 0.07 0.08 0.08 0.06 0.06 0.09 0.10 0.10 0.10 0.12 0.15 0.18 0.19 0.20 0.22 0.19 0.22 0.22 0.24 0.27 0.28 0.26 0.23 0.22 0.24 0.29 0.37 0.59
0.00 0.00 0.00 0.00 0.00 0.00 0.00 0.00 0.01 0.04 0.06 0.05 0.03 0.02 0.04 0.06 0.07 0.07 0.05 0.05 0.07 0.07 0.07 0.08 0.09 0.09 0.09 0.10 0.13 0.17 0.27 0.36 0.42 0.46 0.47 0.48 0.45 0.48 0.54 0.63 0.75 0.88 0.99
0.00 0.00 0.00 0.00 0.00 0.00 0.00 0.00 0.05 0.07 0.03 0.02 0.02 0.02 0.03 0.04 0.05 0.05 0.07 0.07 0.07 0.05 0.05 0.05 0.04 0.04 0.06 0.09 0.10 0.11 0.13 0.17 0.23 0.29 0.36 0.40 0.41 0.42 0.42 0.47 0.56 0.72 0.90
0.00 0.02 0.00 0.00 0.01 0.02 0.07 0.12 0.10 0.03 0.04 0.04 0.03 0.03 0.04 0.05 0.06 0.06 0.06 0.06 0.06 0.06 0.05 0.04 0.03 0.02 0.02 0.03 0.05 0.08 0.12 0.17 0.25 0.29 0.31 0.34 0.36 0.39 0.40 0.43 0.49 0.58 0.65
0.00 0.00 0.01 0.00 0.06 0.15 0.25 0.15 0.12 0.10 0.10 0.09 0.07 0.08 0.07 0.08 0.07 0.07 0.06 0.05 0.05 0.05 0.04 0.05 0.05 0.06 0.06 0.07 0.09 0.08 0.08 0.07 0.07 0.08 0.11 0.17 0.26 0.37 0.51 0.69 0.77 0.68 0.52
0.00 0.00 0.01 0.01 0.05 0.19 0.18 0.17 0.20 0.19 0.16 0.15 0.12 0.07 0.06 0.08 0.07 0.06 0.07 0.05 0.05 0.04 0.04 0.08 0.14 0.16 0.16 0.19 0.18 0.17 0.17 0.18 0.21 0.23 0.27 0.32 0.40 0.45 0.42 0.34 0.28 0.24 0.21
0.00 0.00 0.00 0.00 0.02 0.08 0.15 0.15 0.19 0.17 0.10 0.10 0.09 0.07 0.05 0.06 0.08 0.09 0.09 0.09 0.09 0.10 0.10 0.13 0.14 0.17 0.21 0.37 0.31 0.25 0.26 0.28 0.29 0.31 0.34 0.37 0.41 0.34 0.30 0.22 0.14 0.11 0.17
0.00 0.00 0.00 0.00 0.02 0.11 0.19 0.61 0.74 0.37 0.09 0.21 0.16 0.12 0.08 0.09 0.12 0.14 0.16 0.14 0.12 0.15 0.24 0.25 0.20 0.16 0.15 0.29 0.24 0.22 0.20 0.23 0.25 0.25 0.22 0.19 0.17 0.13 0.10 0.09 0.07 0.12 0.09
0.00 0.00 0.00 0.00 0.02 0.13 0.53 0.65 0.86 0.35 0.16 0.29 0.47 0.52 0.47 0.39 0.39 0.41 0.40 0.32 0.30 0.29 0.25 0.27 0.37 0.45 0.54 0.51 0.36 0.28 0.20 0.19 0.17 0.15 0.13 0.09 0.04 0.02 0.02 0.04 0.09 0.04 0.01
0.01 0.01 0.00 0.00 0.01 0.08 0.30 0.32 0.47 0.53 0.56 0.85 0.84 0.80 0.66 0.62 0.87 1.01 0.86 0.75 0.73 0.68 0.77 0.64 0.55 0.66 0.74 0.61 0.47 0.30 0.22 0.18 0.13 0.07 0.02 0.00 0.00 0.01 0.02 0.04 0.02 0.00 0.00
0.00 0.00 0.01 0.02 0.03 0.06 0.22 0.56 0.97 0.79 0.72 0.81 0.97 0.89 0.78 0.64 0.75 0.70 0.76 0.71 0.63 0.68 0.66 0.70 0.57 0.52 0.48 0.35 0.27 0.19 0.12 0.06 0.01 0.00 0.00 0.00 0.01 0.01 0.04 0.03 0.01 0.00 0.00
0.03 0.04 0.05 0.14 0.19 0.29 0.61 0.84 0.99 0.90 0.89 0.92 0.79 0.66 0.55 0.71 0.67 0.69 0.53 0.61 0.53 0.41 0.37 0.33 0.30 0.21 0.12 0.04 0.01 0.00 0.00 0.00 0.00 0.00 0.00 0.00 0.01 0.03 0.03 0.02 0.00 0.00 0.01
0.19 0.07 0.22 0.66 0.79 0.59 0.55 0.45 0.50 0.47 0.26 0.37 0.34 0.37 0.26 0.32 0.42 0.27 0.25 0.23 0.19 0.13 0.07 0.03 0.01 0.00 0.00 0.00 0.00 0.00 0.00 0.00 0.01 0.01 0.01 0.01 0.02 0.02 0.00 0.00 0.00 0.01 0.01
0.07 0.01 0.07 0.12 0.09 0.04 0.01 0.03 0.05 0.05 0.00 0.00 0.00 0.00 0.00 0.00 0.01 0.00 0.00 0.00 0.00 0.00 0.00 0.00 0.00 0.00 0.00 0.00 0.00 0.00 0.00 0.00 0.01 0.01 0.01 0.01 0.00 0.00 0.00 0.00 0.00 0.00 0.00
0.00 0.00 0.00 0.00 0.00 0.00 0.00 0.00 0.00 0.00 0.00 0.00 0.00 0.00 0.00 0.00 0.00 0.00 0.00 0.00 0.00 0.00 0.00 0.00 0.00 0.00 0.00 0.00 0.00 0.00 0.00 0.01 0.01 0.00 0.00 0.00 0.00 0.00 0.00 0.00 0.00 0.00 0.00
0.04 0.07 0.09 0.09 0.05 0.01 0.01 0.01 0.01 0.02 0.03 0.02 0.02 0.01 0.01 0.00 0.00 0.00 0.00 0.00 0.00 0.00 0.00 0.00 0.00 0.00 0.00 0.00 0.00 0.00 0.01 0.01 0.01 0.01 0.00 0.00 0.00 0.00 0.00 0.00 0.00 0.00 0.00
0.00 0.01 0.06 0.12 0.19 0.19 0.17 0.12 0.08 0.07 0.05 0.05 0.03 0.02 0.01 0.00 0.00 0.00 0.00 0.00 0.00 0.00 0.00 0.00 0.00 0.00 0.00 0.00 0.00 0.01 0.01 0.01 0.01 0.00 0.00 0.00 0.00 0.00 0.00 0.00 0.01 0.01 0.01